Вернуться в каталог

PEGASUS DEB

АктивенPO
NORAD 39926·DEBRIS·🇺🇸 United States

Запущен May 19, 1994 с Vandenberg Space Force Base

Loading…

Ближайшие Пролёты (ближайшие 24 часа)

TLE

СвежийSource: Space-Track

Эпоха: Sep 14, 2026, 12:37 UTC

1 39926U 94029AFZ 26257.52597286  .00000628  00000-0  16730-3 0  9995
2 39926  81.8445 178.1724 0294914 264.1167 219.9897 14.24748455635460

Отслеживайте PEGASUS DEB в реальном времени с AllMySat

Download on the App Store